GFSGBSN_prec_precacc24_003.txt.gz
Total_Precipitation_Accumulation
0.00 0.01 0.04 0.07 0.06 0.05 0.03 0.01 0.00 0.00 0.01 0.03 0.03 0.00 0.00 0.00 0.00 0.00 0.00 0.00 0.00 0.00 0.00 0.00 0.00 0.00 0.00 0.00 0.00 0.00 0.00 0.00 0.00 0.00 0.00 0.00 0.00 0.00 0.00 0.00 0.00 0.00 0.00 0.00 0.00 0.00 0.00
0.00 0.00 0.00 0.01 0.03 0.05 0.06 0.05 0.01 0.00 0.00 0.01 0.03 0.01 0.00 0.00 0.00 0.00 0.00 0.00 0.00 0.00 0.00 0.00 0.00 0.00 0.00 0.00 0.00 0.00 0.00 0.00 0.00 0.00 0.00 0.00 0.00 0.00 0.00 0.00 0.00 0.00 0.00 0.00 0.00 0.00 0.00
0.00 0.00 0.00 0.00 0.00 0.03 0.06 0.07 0.06 0.01 0.01 0.01 0.04 0.03 0.00 0.00 0.00 0.00 0.00 0.00 0.00 0.00 0.00 0.00 0.00 0.00 0.00 0.00 0.00 0.00 0.00 0.00 0.00 0.00 0.00 0.00 0.00 0.01 0.01 0.00 0.00 0.00 0.00 0.00 0.00 0.00 0.00
0.00 0.00 0.00 0.00 0.00 0.00 0.04 0.05 0.05 0.04 0.01 0.01 0.02 0.05 0.02 0.00 0.00 0.00 0.00 0.01 0.01 0.01 0.01 0.00 0.00 0.00 0.00 0.00 0.00 0.00 0.00 0.00 0.00 0.00 0.00 0.00 0.00 0.00 0.01 0.00 0.00 0.00 0.00 0.00 0.00 0.00 0.00
0.00 0.00 0.00 0.00 0.00 0.00 0.00 0.02 0.03 0.05 0.05 0.04 0.04 0.05 0.05 0.02 0.00 0.00 0.01 0.01 0.00 0.00 0.00 0.01 0.00 0.00 0.00 0.00 0.00 0.00 0.00 0.00 0.00 0.00 0.00 0.00 0.00 0.00 0.00 0.01 0.01 0.00 0.00 0.00 0.00 0.00 0.00
0.00 0.00 0.00 0.00 0.00 0.00 0.00 0.00 0.02 0.04 0.05 0.05 0.05 0.06 0.06 0.03 0.00 0.00 0.01 0.02 0.01 0.01 0.01 0.00 0.00 0.00 0.00 0.00 0.00 0.00 0.00 0.00 0.00 0.00 0.00 0.00 0.00 0.00 0.00 0.01 0.00 0.00 0.00 0.00 0.00 0.00 0.00
0.00 0.00 0.00 0.00 0.00 0.00 0.00 0.00 0.00 0.02 0.04 0.04 0.06 0.08 0.10 0.05 0.00 0.00 0.01 0.01 0.00 0.00 0.00 0.00 0.00 0.00 0.00 0.00 0.00 0.00 0.00 0.00 0.00 0.00 0.00 0.00 0.00 0.00 0.00 0.00 0.00 0.00 0.00 0.00 0.00 0.00 0.00
0.00 0.00 0.00 0.00 0.00 0.00 0.00 0.00 0.00 0.02 0.03 0.04 0.04 0.08 0.10 0.05 0.00 0.00 0.00 0.00 0.00 0.00 0.00 0.00 0.00 0.00 0.00 0.00 0.00 0.00 0.00 0.00 0.00 0.00 0.00 0.00 0.00 0.00 0.00 0.00 0.00 0.00 0.00 0.00 0.00 0.00 0.00
0.00 0.00 0.00 0.00 0.00 0.00 0.00 0.00 0.01 0.03 0.07 0.06 0.05 0.08 0.12 0.05 0.02 0.02 0.00 0.00 0.00 0.00 0.00 0.00 0.00 0.00 0.00 0.00 0.00 0.00 0.00 0.00 0.00 0.00 0.00 0.00 0.00 0.00 0.00 0.00 0.00 0.00 0.00 0.00 0.00 0.00 0.00
0.00 0.00 0.00 0.00 0.00 0.00 0.01 0.02 0.02 0.01 0.10 0.16 0.13 0.10 0.10 0.11 0.06 0.00 0.00 0.00 0.00 0.00 0.00 0.00 0.00 0.00 0.00 0.00 0.00 0.00 0.00 0.00 0.00 0.00 0.00 0.00 0.00 0.00 0.00 0.00 0.00 0.00 0.00 0.00 0.00 0.00 0.00
0.00 0.00 0.00 0.00 0.01 0.02 0.04 0.04 0.03 0.02 0.08 0.22 0.23 0.14 0.14 0.11 0.02 0.00 0.00 0.00 0.00 0.00 0.00 0.00 0.00 0.00 0.00 0.00 0.00 0.00 0.00 0.00 0.00 0.00 0.00 0.00 0.00 0.00 0.00 0.00 0.00 0.00 0.00 0.00 0.00 0.01 0.01
0.00 0.01 0.01 0.00 0.01 0.03 0.06 0.04 0.03 0.01 0.02 0.14 0.34 0.28 0.27 0.10 0.01 0.00 0.00 0.00 0.01 0.00 0.00 0.00 0.00 0.00 0.00 0.00 0.00 0.00 0.00 0.01 0.00 0.01 0.01 0.00 0.00 0.00 0.00 0.00 0.00 0.00 0.01 0.00 0.01 0.01 0.01
0.00 0.01 0.01 0.01 0.02 0.05 0.07 0.04 0.03 0.02 0.02 0.09 0.34 0.55 0.45 0.08 0.01 0.00 0.00 0.00 0.00 0.00 0.00 0.00 0.00 0.00 0.00 0.00 0.00 0.00 0.00 0.02 0.04 0.06 0.07 0.05 0.01 0.00 0.00 0.00 0.00 0.00 0.01 0.07 0.05 0.02 0.01
0.01 0.02 0.01 0.01 0.01 0.05 0.06 0.05 0.06 0.05 0.04 0.06 0.26 0.61 0.55 0.12 0.01 0.00 0.00 0.00 0.00 0.00 0.00 0.00 0.00 0.00 0.00 0.00 0.00 0.00 0.01 0.01 0.01 0.08 0.10 0.04 0.01 0.00 0.00 0.00 0.00 0.00 0.00 0.02 0.04 0.01 0.00
0.01 0.03 0.01 0.01 0.02 0.04 0.03 0.05 0.06 0.06 0.04 0.05 0.27 0.75 0.73 0.13 0.00 0.00 0.00 0.00 0.00 0.00 0.00 0.00 0.00 0.00 0.00 0.00 0.00 0.01 0.01 0.00 0.00 0.01 0.02 0.02 0.01 0.00 0.00 0.00 0.01 0.02 0.05 0.01 0.03 0.04 0.04
0.02 0.03 0.02 0.01 0.01 0.01 0.03 0.05 0.13 0.25 0.16 0.11 0.30 1.07 0.57 0.10 0.00 0.00 0.00 0.00 0.00 0.00 0.00 0.00 0.00 0.00 0.00 0.00 0.00 0.00 0.00 0.00 0.00 0.00 0.00 0.00 0.01 0.00 0.00 0.00 0.00 0.00 0.01 0.02 0.10 0.08 0.03
0.01 0.03 0.02 0.02 0.01 0.00 0.02 0.10 0.23 0.22 0.19 0.27 0.37 0.81 0.53 0.08 0.02 0.03 0.02 0.00 0.00 0.00 0.00 0.00 0.00 0.00 0.00 0.00 0.00 0.00 0.00 0.00 0.00 0.00 0.00 0.00 0.01 0.00 0.01 0.00 0.00 0.01 0.02 0.02 0.00 0.00 0.01
0.02 0.02 0.02 0.01 0.00 0.00 0.03 0.17 0.17 0.23 0.27 0.31 0.49 0.47 0.50 0.09 0.12 0.07 0.01 0.00 0.00 0.00 0.00 0.00 0.00 0.00 0.00 0.00 0.00 0.00 0.00 0.00 0.00 0.00 0.00 0.00 0.02 0.02 0.01 0.00 0.00 0.00 0.00 0.00 0.01 0.00 0.00
0.02 0.02 0.01 0.02 0.00 0.00 0.02 0.11 0.15 0.25 0.26 0.39 0.37 0.45 0.37 0.04 0.05 0.02 0.00 0.00 0.00 0.00 0.01 0.00 0.00 0.00 0.00 0.00 0.00 0.00 0.00 0.00 0.00 0.00 0.00 0.01 0.05 0.07 0.06 0.05 0.03 0.04 0.00 0.00 0.00 0.00 0.01
0.01 0.02 0.01 0.02 0.00 0.00 0.01 0.02 0.10 0.21 0.30 0.39 0.32 0.43 0.55 0.26 0.02 0.00 0.00 0.00 0.00 0.00 0.00 0.01 0.01 0.01 0.01 0.00 0.00 0.00 0.00 0.00 0.00 0.00 0.01 0.07 0.08 0.05 0.05 0.15 0.05 0.02 0.01 0.00 0.00 0.00 0.00
0.02 0.02 0.02 0.02 0.00 0.00 0.00 0.01 0.05 0.17 0.26 0.30 0.31 0.16 0.18 0.23 0.05 0.00 0.00 0.00 0.00 0.01 0.01 0.02 0.02 0.02 0.01 0.00 0.00 0.00 0.00 0.00 0.00 0.02 0.11 0.18 0.11 0.05 0.05 0.10 0.16 0.04 0.00 0.00 0.01 0.00 0.00
0.01 0.03 0.02 0.01 0.00 0.00 0.00 0.01 0.05 0.21 0.24 0.24 0.30 0.06 0.00 0.00 0.00 0.00 0.00 0.00 0.00 0.01 0.02 0.03 0.00 0.00 0.01 0.01 0.00 0.00 0.00 0.00 0.00 0.02 0.10 0.16 0.16 0.16 0.16 0.08 0.10 0.02 0.01 0.02 0.04 0.01 0.02
0.01 0.03 0.04 0.02 0.00 0.00 0.00 0.01 0.04 0.19 0.25 0.30 0.30 0.07 0.00 0.00 0.00 0.00 0.00 0.00 0.00 0.02 0.02 0.00 0.00 0.00 0.00 0.00 0.00 0.00 0.00 0.01 0.01 0.02 0.11 0.17 0.21 0.33 0.33 0.08 0.02 0.04 0.00 0.02 0.07 0.06 0.02
0.02 0.03 0.04 0.03 0.01 0.00 0.00 0.01 0.03 0.12 0.17 0.22 0.33 0.29 0.06 0.02 0.00 0.00 0.00 0.00 0.00 0.00 0.00 0.00 0.00 0.00 0.00 0.00 0.00 0.00 0.00 0.00 0.00 0.00 0.02 0.08 0.14 0.30 0.50 0.19 0.07 0.04 0.05 0.12 0.15 0.12 0.06
0.02 0.03 0.04 0.02 0.00 0.00 0.00 0.01 0.03 0.06 0.08 0.18 0.17 0.26 0.06 0.03 0.01 0.00 0.00 0.01 0.01 0.01 0.00 0.00 0.00 0.00 0.01 0.00 0.02 0.03 0.01 0.00 0.00 0.00 0.00 0.00 0.01 0.03 0.05 0.01 0.01 0.00 0.02 0.05 0.07 0.08 0.03
0.02 0.02 0.03 0.01 0.00 0.00 0.00 0.01 0.02 0.03 0.04 0.18 0.16 0.10 0.03 0.01 0.01 0.00 0.01 0.01 0.02 0.01 0.00 0.00 0.00 0.01 0.03 0.02 0.05 0.03 0.00 0.00 0.00 0.00 0.00 0.00 0.00 0.00 0.00 0.00 0.00 0.00 0.00 0.00 0.00 0.00 0.00
0.03 0.02 0.02 0.00 0.00 0.00 0.00 0.00 0.02 0.07 0.09 0.12 0.21 0.04 0.01 0.01 0.00 0.00 0.00 0.00 0.00 0.00 0.00 0.00 0.02 0.04 0.05 0.02 0.08 0.02 0.00 0.00 0.00 0.00 0.00 0.00 0.00 0.00 0.00 0.00 0.00 0.00 0.00 0.00 0.00 0.00 0.00
0.02 0.01 0.01 0.00 0.00 0.00 0.00 0.00 0.01 0.05 0.10 0.13 0.11 0.12 0.06 0.01 0.00 0.00 0.00 0.00 0.00 0.00 0.00 0.01 0.04 0.09 0.09 0.04 0.08 0.02 0.00 0.00 0.00 0.00 0.00 0.00 0.00 0.00 0.00 0.00 0.00 0.00 0.00 0.00 0.00 0.00 0.00
0.01 0.01 0.01 0.00 0.00 0.00 0.00 0.00 0.01 0.01 0.07 0.15 0.14 0.11 0.03 0.00 0.00 0.00 0.00 0.00 0.00 0.00 0.00 0.00 0.03 0.06 0.09 0.03 0.01 0.00 0.00 0.00 0.00 0.00 0.00 0.00 0.00 0.00 0.00 0.00 0.00 0.00 0.00 0.00 0.00 0.00 0.00

GFSGBSN_prec_precacc24_006.txt.gz
Total_Precipitation_Accumulation
0.00 0.01 0.04 0.07 0.06 0.06 0.04 0.04 0.06 0.06 0.04 0.03 0.05 0.04 0.02 0.00 0.00 0.00 0.00 0.00 0.00 0.01 0.00 0.00 0.00 0.00 0.01 0.01 0.00 0.00 0.00 0.00 0.00 0.00 0.00 0.00 0.00 0.00 0.00 0.00 0.00 0.00 0.00 0.00 0.00 0.00 0.00
0.00 0.00 0.00 0.01 0.03 0.05 0.06 0.06 0.06 0.07 0.06 0.05 0.05 0.05 0.04 0.02 0.00 0.00 0.00 0.00 0.00 0.00 0.01 0.00 0.01 0.00 0.00 0.00 0.00 0.00 0.00 0.00 0.00 0.00 0.00 0.00 0.00 0.00 0.00 0.00 0.00 0.00 0.00 0.00 0.00 0.00 0.00
0.00 0.00 0.00 0.00 0.00 0.03 0.07 0.07 0.08 0.08 0.08 0.08 0.07 0.07 0.05 0.04 0.01 0.00 0.00 0.00 0.01 0.01 0.00 0.00 0.01 0.00 0.00 0.00 0.00 0.00 0.00 0.00 0.00 0.00 0.00 0.00 0.00 0.01 0.01 0.00 0.00 0.00 0.00 0.00 0.00 0.00 0.00
0.00 0.00 0.00 0.00 0.00 0.00 0.04 0.06 0.05 0.06 0.08 0.08 0.07 0.09 0.08 0.07 0.02 0.00 0.00 0.01 0.03 0.03 0.04 0.02 0.01 0.00 0.00 0.00 0.00 0.00 0.00 0.00 0.00 0.00 0.00 0.00 0.00 0.00 0.01 0.01 0.00 0.00 0.00 0.00 0.00 0.00 0.00
0.00 0.00 0.00 0.00 0.00 0.00 0.00 0.02 0.04 0.05 0.07 0.11 0.11 0.08 0.11 0.12 0.06 0.00 0.01 0.02 0.02 0.00 0.02 0.03 0.00 0.00 0.00 0.00 0.00 0.00 0.00 0.00 0.00 0.00 0.00 0.00 0.00 0.00 0.00 0.01 0.01 0.00 0.00 0.00 0.00 0.00 0.00
0.00 0.00 0.00 0.00 0.00 0.00 0.00 0.00 0.02 0.05 0.05 0.07 0.10 0.10 0.10 0.13 0.09 0.02 0.02 0.05 0.04 0.02 0.01 0.00 0.00 0.00 0.00 0.00 0.00 0.00 0.00 0.00 0.00 0.00 0.00 0.00 0.00 0.00 0.00 0.01 0.00 0.00 0.00 0.00 0.00 0.00 0.00
0.00 0.00 0.00 0.00 0.00 0.00 0.00 0.00 0.01 0.03 0.04 0.04 0.09 0.11 0.14 0.14 0.10 0.02 0.01 0.01 0.01 0.00 0.01 0.00 0.00 0.00 0.00 0.00 0.00 0.00 0.00 0.00 0.00 0.00 0.00 0.00 0.00 0.00 0.00 0.00 0.00 0.00 0.00 0.00 0.00 0.00 0.00
0.00 0.00 0.00 0.00 0.00 0.00 0.00 0.01 0.01 0.03 0.04 0.04 0.06 0.13 0.15 0.13 0.10 0.06 0.00 0.00 0.00 0.00 0.00 0.00 0.00 0.00 0.00 0.00 0.00 0.00 0.00 0.00 0.00 0.00 0.00 0.00 0.00 0.00 0.00 0.00 0.00 0.00 0.00 0.00 0.00 0.00 0.00
0.00 0.00 0.01 0.01 0.01 0.00 0.00 0.01 0.02 0.05 0.09 0.07 0.07 0.13 0.20 0.17 0.26 0.13 0.00 0.00 0.00 0.00 0.00 0.00 0.00 0.00 0.00 0.00 0.00 0.00 0.00 0.00 0.00 0.00 0.00 0.00 0.00 0.00 0.00 0.00 0.00 0.00 0.00 0.00 0.00 0.00 0.00
0.01 0.01 0.01 0.01 0.00 0.00 0.01 0.03 0.04 0.05 0.14 0.18 0.14 0.16 0.23 0.38 0.64 0.11 0.02 0.00 0.00 0.00 0.00 0.00 0.00 0.00 0.00 0.00 0.00 0.00 0.00 0.00 0.00 0.00 0.00 0.00 0.00 0.00 0.00 0.00 0.00 0.00 0.00 0.00 0.00 0.00 0.00
0.00 0.01 0.02 0.01 0.01 0.02 0.05 0.07 0.08 0.09 0.15 0.25 0.25 0.21 0.26 0.57 0.44 0.11 0.01 0.00 0.00 0.00 0.00 0.00 0.00 0.00 0.00 0.00 0.00 0.00 0.00 0.00 0.00 0.00 0.00 0.00 0.00 0.00 0.00 0.00 0.00 0.00 0.00 0.00 0.01 0.01 0.02
0.01 0.03 0.03 0.01 0.02 0.06 0.10 0.11 0.12 0.08 0.05 0.15 0.36 0.38 0.48 0.57 0.29 0.06 0.02 0.00 0.01 0.00 0.00 0.00 0.00 0.00 0.01 0.01 0.00 0.00 0.00 0.01 0.01 0.01 0.01 0.00 0.00 0.00 0.00 0.00 0.00 0.00 0.01 0.01 0.01 0.02 0.02
0.02 0.04 0.03 0.02 0.04 0.09 0.12 0.10 0.07 0.09 0.08 0.13 0.37 0.66 0.84 0.62 0.31 0.06 0.05 0.00 0.00 0.00 0.00 0.00 0.00 0.00 0.00 0.00 0.00 0.00 0.01 0.02 0.05 0.07 0.08 0.06 0.01 0.00 0.00 0.00 0.00 0.00 0.03 0.11 0.10 0.07 0.02
0.03 0.05 0.04 0.03 0.03 0.07 0.09 0.06 0.11 0.12 0.11 0.10 0.30 0.72 0.77 0.60 0.31 0.08 0.02 0.00 0.00 0.00 0.00 0.00 0.00 0.00 0.00 0.00 0.00 0.00 0.02 0.02 0.02 0.09 0.13 0.06 0.02 0.00 0.00 0.00 0.00 0.00 0.01 0.04 0.06 0.02 0.00
0.04 0.06 0.05 0.03 0.04 0.06 0.04 0.07 0.09 0.14 0.18 0.15 0.31 0.85 0.96 0.80 0.46 0.13 0.01 0.00 0.00 0.00 0.00 0.00 0.00 0.00 0.00 0.00 0.00 0.01 0.02 0.00 0.00 0.01 0.04 0.04 0.01 0.00 0.00 0.00 0.02 0.07 0.10 0.02 0.05 0.05 0.11
0.04 0.06 0.05 0.04 0.04 0.01 0.03 0.06 0.17 0.45 0.70 0.38 0.33 1.14 0.77 0.65 0.57 0.15 0.04 0.00 0.00 0.00 0.00 0.00 0.00 0.00 0.00 0.00 0.00 0.00 0.00 0.00 0.00 0.00 0.00 0.00 0.02 0.00 0.00 0.00 0.00 0.03 0.03 0.10 0.25 0.13 0.07
0.04 0.06 0.04 0.05 0.02 0.00 0.02 0.11 0.26 0.39 0.51 0.35 0.42 0.89 0.72 0.50 0.49 0.25 0.09 0.00 0.00 0.00 0.00 0.00 0.00 0.00 0.00 0.00 0.00 0.00 0.00 0.00 0.00 0.00 0.00 0.00 0.03 0.01 0.01 0.01 0.00 0.01 0.07 0.03 0.02 0.00 0.01
0.06 0.04 0.03 0.04 0.02 0.00 0.03 0.18 0.19 0.36 0.53 0.46 0.58 0.53 0.82 0.57 0.56 0.24 0.02 0.00 0.00 0.00 0.00 0.00 0.00 0.00 0.00 0.00 0.00 0.00 0.00 0.00 0.00 0.00 0.00 0.00 0.06 0.04 0.01 0.00 0.00 0.00 0.00 0.00 0.02 0.00 0.00
0.06 0.04 0.02 0.04 0.01 0.00 0.02 0.11 0.16 0.31 0.44 0.76 0.51 0.58 0.74 0.33 0.21 0.08 0.00 0.00 0.00 0.00 0.01 0.00 0.00 0.00 0.00 0.00 0.00 0.00 0.00 0.00 0.00 0.00 0.00 0.01 0.10 0.11 0.08 0.09 0.06 0.08 0.01 0.00 0.00 0.02 0.01
0.05 0.04 0.03 0.05 0.01 0.01 0.01 0.03 0.11 0.28 0.38 0.57 0.53 0.73 1.06 0.65 0.09 0.00 0.00 0.00 0.00 0.00 0.00 0.01 0.02 0.02 0.01 0.00 0.00 0.00 0.00 0.00 0.00 0.00 0.01 0.11 0.16 0.10 0.08 0.24 0.18 0.09 0.01 0.00 0.00 0.02 0.01
0.06 0.03 0.04 0.04 0.02 0.01 0.01 0.02 0.07 0.25 0.33 0.33 0.35 0.23 0.32 0.41 0.10 0.00 0.00 0.00 0.00 0.01 0.01 0.03 0.04 0.04 0.02 0.01 0.00 0.00 0.00 0.00 0.00 0.02 0.13 0.30 0.19 0.09 0.10 0.16 0.35 0.15 0.04 0.01 0.01 0.01 0.00
0.05 0.04 0.03 0.05 0.02 0.01 0.00 0.01 0.07 0.34 0.33 0.30 0.44 0.12 0.00 0.01 0.01 0.00 0.00 0.00 0.00 0.01 0.03 0.03 0.01 0.01 0.02 0.02 0.00 0.00 0.00 0.00 0.01 0.03 0.12 0.26 0.29 0.27 0.28 0.19 0.24 0.09 0.01 0.03 0.05 0.01 0.02
0.04 0.04 0.04 0.04 0.01 0.00 0.00 0.01 0.06 0.31 0.39 0.45 0.56 0.15 0.00 0.00 0.01 0.00 0.00 0.00 0.00 0.02 0.02 0.00 0.01 0.02 0.01 0.00 0.00 0.00 0.00 0.01 0.01 0.06 0.23 0.35 0.38 0.48 0.41 0.14 0.05 0.12 0.01 0.02 0.07 0.06 0.02
0.04 0.04 0.07 0.05 0.01 0.00 0.00 0.01 0.05 0.20 0.33 0.47 0.60 0.37 0.11 0.04 0.00 0.00 0.00 0.00 0.00 0.00 0.00 0.00 0.00 0.01 0.00 0.00 0.00 0.00 0.00 0.00 0.01 0.00 0.05 0.18 0.33 0.51 0.72 0.34 0.16 0.07 0.05 0.12 0.15 0.12 0.06
0.04 0.06 0.06 0.03 0.00 0.00 0.00 0.01 0.03 0.10 0.16 0.31 0.36 0.42 0.14 0.04 0.01 0.00 0.01 0.01 0.02 0.02 0.00 0.00 0.00 0.00 0.02 0.01 0.03 0.03 0.01 0.00 0.00 0.00 0.00 0.02 0.09 0.16 0.20 0.07 0.04 0.01 0.05 0.08 0.09 0.08 0.03
0.04 0.04 0.05 0.01 0.00 0.00 0.00 0.01 0.03 0.05 0.05 0.21 0.26 0.40 0.16 0.03 0.02 0.00 0.02 0.01 0.04 0.06 0.01 0.00 0.00 0.01 0.04 0.07 0.09 0.05 0.00 0.00 0.00 0.00 0.00 0.00 0.00 0.01 0.00 0.00 0.00 0.00 0.00 0.01 0.02 0.01 0.00
0.04 0.03 0.02 0.01 0.00 0.00 0.00 0.00 0.03 0.08 0.09 0.13 0.30 0.30 0.11 0.03 0.02 0.00 0.02 0.01 0.01 0.01 0.00 0.00 0.02 0.04 0.06 0.06 0.10 0.03 0.00 0.00 0.00 0.00 0.00 0.00 0.00 0.00 0.00 0.00 0.00 0.00 0.00 0.00 0.00 0.00 0.00
0.03 0.02 0.01 0.01 0.01 0.00 0.00 0.00 0.02 0.06 0.11 0.15 0.21 0.26 0.15 0.04 0.01 0.00 0.00 0.00 0.00 0.00 0.00 0.01 0.05 0.10 0.12 0.08 0.10 0.03 0.00 0.00 0.00 0.00 0.00 0.00 0.00 0.00 0.00 0.00 0.00 0.00 0.00 0.00 0.00 0.00 0.00
0.02 0.02 0.01 0.01 0.00 0.00 0.00 0.00 0.01 0.01 0.08 0.17 0.17 0.18 0.10 0.03 0.00 0.00 0.00 0.00 0.00 0.00 0.00 0.01 0.04 0.10 0.16 0.08 0.02 0.00 0.00 0.00 0.00 0.00 0.00 0.00 0.00 0.00 0.00 0.00 0.00 0.00 0.00 0.00 0.00 0.00 0.00

GFSGBSN_prec_precacc24_009.txt.gz
Total_Precipitation_Accumulation
0.00 0.01 0.04 0.07 0.06 0.06 0.04 0.04 0.06 0.06 0.06 0.08 0.09 0.08 0.06 0.05 0.03 0.00 0.00 0.00 0.00 0.01 0.00 0.00 0.01 0.00 0.01 0.02 0.00 0.00 0.00 0.00 0.00 0.03 0.01 0.00 0.00 0.00 0.00 0.00 0.00 0.00 0.00 0.00 0.00 0.00 0.00
0.00 0.00 0.00 0.01 0.03 0.05 0.06 0.06 0.06 0.07 0.07 0.09 0.11 0.09 0.08 0.08 0.07 0.02 0.00 0.00 0.00 0.00 0.02 0.00 0.01 0.01 0.00 0.00 0.00 0.00 0.00 0.00 0.00 0.00 0.00 0.00 0.00 0.00 0.00 0.00 0.00 0.00 0.00 0.00 0.00 0.00 0.00
0.00 0.00 0.00 0.00 0.00 0.03 0.07 0.07 0.08 0.08 0.09 0.09 0.12 0.12 0.09 0.09 0.08 0.04 0.00 0.00 0.01 0.01 0.00 0.00 0.01 0.00 0.00 0.00 0.00 0.00 0.00 0.00 0.00 0.00 0.00 0.01 0.00 0.01 0.01 0.00 0.00 0.00 0.00 0.00 0.00 0.00 0.00
0.00 0.00 0.00 0.00 0.00 0.00 0.04 0.06 0.05 0.06 0.08 0.09 0.11 0.14 0.12 0.11 0.10 0.05 0.01 0.01 0.03 0.04 0.06 0.03 0.01 0.00 0.00 0.00 0.00 0.00 0.00 0.00 0.00 0.00 0.00 0.00 0.00 0.00 0.01 0.01 0.00 0.00 0.00 0.00 0.00 0.00 0.00
0.00 0.00 0.00 0.00 0.00 0.00 0.00 0.02 0.04 0.05 0.07 0.11 0.12 0.12 0.16 0.16 0.12 0.08 0.07 0.02 0.02 0.01 0.04 0.06 0.01 0.00 0.00 0.00 0.00 0.00 0.00 0.00 0.00 0.00 0.00 0.00 0.00 0.00 0.00 0.01 0.01 0.00 0.00 0.00 0.00 0.00 0.00
0.00 0.00 0.00 0.00 0.00 0.00 0.00 0.00 0.02 0.05 0.06 0.08 0.10 0.12 0.15 0.17 0.14 0.10 0.11 0.08 0.05 0.03 0.02 0.00 0.00 0.00 0.00 0.00 0.00 0.00 0.00 0.00 0.00 0.00 0.00 0.00 0.00 0.00 0.00 0.01 0.00 0.00 0.00 0.00 0.00 0.00 0.00
0.00 0.01 0.00 0.00 0.00 0.00 0.00 0.00 0.01 0.03 0.05 0.05 0.10 0.12 0.16 0.21 0.17 0.20 0.21 0.07 0.01 0.00 0.01 0.00 0.00 0.00 0.00 0.00 0.00 0.00 0.00 0.00 0.00 0.00 0.00 0.00 0.00 0.00 0.00 0.00 0.00 0.00 0.00 0.00 0.00 0.00 0.00
0.01 0.01 0.01 0.02 0.01 0.01 0.01 0.01 0.01 0.03 0.05 0.06 0.08 0.15 0.17 0.17 0.23 0.37 0.13 0.01 0.00 0.00 0.00 0.00 0.00 0.00 0.00 0.00 0.00 0.00 0.00 0.00 0.00 0.00 0.00 0.00 0.00 0.00 0.00 0.00 0.00 0.00 0.00 0.00 0.00 0.00 0.00
0.01 0.01 0.02 0.03 0.01 0.01 0.01 0.01 0.02 0.07 0.11 0.10 0.11 0.16 0.22 0.22 0.42 0.57 0.11 0.02 0.00 0.00 0.00 0.00 0.00 0.00 0.00 0.00 0.00 0.00 0.00 0.00 0.00 0.00 0.00 0.00 0.00 0.00 0.00 0.00 0.00 0.00 0.00 0.00 0.00 0.00 0.00
0.01 0.02 0.03 0.01 0.01 0.01 0.01 0.03 0.07 0.11 0.20 0.25 0.18 0.17 0.24 0.45 0.93 0.49 0.16 0.02 0.00 0.00 0.00 0.00 0.00 0.00 0.00 0.00 0.00 0.00 0.00 0.00 0.00 0.00 0.00 0.00 0.00 0.00 0.00 0.00 0.00 0.00 0.00 0.00 0.00 0.00 0.00
0.01 0.02 0.03 0.02 0.02 0.03 0.07 0.09 0.14 0.18 0.20 0.29 0.27 0.21 0.27 0.65 0.82 0.57 0.24 0.03 0.00 0.00 0.00 0.00 0.00 0.00 0.00 0.00 0.00 0.00 0.00 0.00 0.00 0.00 0.00 0.00 0.00 0.00 0.00 0.00 0.00 0.00 0.00 0.00 0.01 0.02 0.03
0.02 0.04 0.04 0.03 0.04 0.08 0.12 0.14 0.16 0.10 0.08 0.16 0.38 0.40 0.50 0.64 0.62 0.46 0.30 0.11 0.01 0.00 0.00 0.00 0.00 0.01 0.02 0.01 0.01 0.00 0.00 0.01 0.01 0.01 0.01 0.00 0.00 0.00 0.00 0.00 0.00 0.00 0.01 0.01 0.01 0.04 0.06
0.03 0.05 0.04 0.04 0.07 0.11 0.14 0.14 0.07 0.10 0.12 0.20 0.42 0.67 0.86 0.73 0.64 0.42 0.44 0.17 0.03 0.00 0.00 0.00 0.00 0.01 0.01 0.01 0.01 0.01 0.01 0.03 0.05 0.08 0.08 0.06 0.01 0.00 0.00 0.00 0.00 0.00 0.06 0.16 0.15 0.12 0.03
0.03 0.07 0.06 0.06 0.07 0.09 0.10 0.07 0.11 0.13 0.24 0.31 0.37 0.73 0.80 0.69 0.56 0.79 0.33 0.11 0.02 0.00 0.00 0.00 0.00 0.00 0.00 0.00 0.00 0.01 0.02 0.02 0.02 0.10 0.14 0.06 0.02 0.00 0.00 0.00 0.00 0.00 0.02 0.09 0.07 0.03 0.01
0.04 0.07 0.08 0.06 0.08 0.08 0.05 0.07 0.09 0.19 0.40 0.52 0.42 0.89 1.01 0.84 0.69 0.92 0.29 0.14 0.00 0.00 0.00 0.00 0.00 0.00 0.00 0.00 0.00 0.01 0.02 0.01 0.00 0.01 0.05 0.04 0.01 0.00 0.00 0.00 0.03 0.11 0.16 0.05 0.11 0.09 0.15
0.04 0.08 0.09 0.07 0.07 0.03 0.03 0.07 0.17 0.49 0.90 0.67 0.45 1.19 0.79 0.71 0.83 0.74 0.34 0.03 0.00 0.00 0.00 0.00 0.00 0.00 0.00 0.00 0.00 0.01 0.00 0.00 0.00 0.00 0.00 0.00 0.02 0.00 0.00 0.00 0.00 0.04 0.04 0.14 0.35 0.20 0.09
0.06 0.09 0.07 0.07 0.05 0.02 0.03 0.12 0.27 0.41 0.61 0.47 0.52 0.94 0.77 0.66 0.92 0.73 0.33 0.01 0.00 0.00 0.00 0.00 0.00 0.00 0.00 0.00 0.00 0.00 0.00 0.00 0.00 0.00 0.00 0.00 0.04 0.01 0.02 0.01 0.00 0.01 0.11 0.10 0.10 0.07 0.03
0.08 0.07 0.06 0.06 0.05 0.01 0.04 0.18 0.19 0.38 0.61 0.57 0.79 0.59 0.89 0.81 0.97 0.62 0.11 0.00 0.00 0.00 0.00 0.00 0.00 0.00 0.00 0.00 0.00 0.00 0.00 0.00 0.00 0.00 0.00 0.00 0.07 0.05 0.01 0.00 0.00 0.00 0.00 0.01 0.03 0.00 0.00
0.08 0.06 0.05 0.07 0.04 0.02 0.03 0.11 0.16 0.33 0.57 0.97 0.63 0.69 0.92 0.42 0.33 0.19 0.03 0.00 0.00 0.00 0.01 0.00 0.00 0.00 0.00 0.00 0.00 0.00 0.00 0.00 0.00 0.00 0.00 0.01 0.12 0.13 0.09 0.11 0.08 0.11 0.02 0.01 0.01 0.05 0.03
0.06 0.06 0.05 0.07 0.05 0.03 0.02 0.03 0.11 0.32 0.44 0.74 0.63 0.95 1.48 0.79 0.15 0.01 0.00 0.00 0.00 0.00 0.00 0.01 0.02 0.02 0.01 0.00 0.00 0.00 0.00 0.00 0.00 0.00 0.01 0.11 0.17 0.11 0.10 0.29 0.35 0.21 0.04 0.02 0.04 0.07 0.02
0.06 0.05 0.05 0.07 0.05 0.02 0.01 0.02 0.08 0.28 0.41 0.48 0.43 0.28 0.41 0.49 0.13 0.00 0.00 0.00 0.00 0.01 0.01 0.03 0.04 0.04 0.02 0.01 0.00 0.00 0.00 0.00 0.00 0.02 0.13 0.33 0.23 0.11 0.12 0.22 0.56 0.31 0.09 0.03 0.08 0.03 0.01
0.05 0.04 0.05 0.08 0.04 0.01 0.00 0.01 0.08 0.43 0.43 0.38 0.56 0.15 0.00 0.01 0.01 0.00 0.00 0.00 0.00 0.01 0.03 0.04 0.01 0.01 0.03 0.03 0.00 0.00 0.00 0.00 0.01 0.03 0.13 0.30 0.36 0.32 0.33 0.25 0.34 0.21 0.05 0.05 0.06 0.02 0.02
0.05 0.04 0.06 0.07 0.02 0.01 0.00 0.01 0.06 0.38 0.49 0.50 0.64 0.21 0.00 0.01 0.01 0.00 0.00 0.00 0.00 0.02 0.02 0.00 0.01 0.02 0.02 0.00 0.01 0.01 0.01 0.01 0.01 0.06 0.26 0.40 0.45 0.59 0.46 0.18 0.15 0.18 0.03 0.03 0.08 0.06 0.02
0.06 0.05 0.08 0.06 0.01 0.01 0.00 0.01 0.05 0.22 0.39 0.53 0.66 0.41 0.12 0.04 0.01 0.00 0.00 0.00 0.00 0.00 0.00 0.00 0.00 0.02 0.01 0.00 0.01 0.00 0.00 0.00 0.01 0.00 0.05 0.19 0.40 0.65 0.78 0.40 0.31 0.14 0.06 0.13 0.15 0.12 0.06
0.05 0.07 0.06 0.04 0.01 0.00 0.00 0.01 0.03 0.11 0.19 0.36 0.45 0.45 0.16 0.04 0.01 0.00 0.01 0.01 0.02 0.02 0.00 0.00 0.00 0.00 0.02 0.02 0.04 0.05 0.01 0.00 0.00 0.00 0.00 0.02 0.14 0.28 0.30 0.14 0.09 0.02 0.05 0.08 0.09 0.08 0.03
0.05 0.05 0.05 0.02 0.01 0.01 0.00 0.01 0.03 0.05 0.06 0.24 0.35 0.51 0.24 0.04 0.02 0.00 0.02 0.01 0.04 0.06 0.02 0.00 0.00 0.01 0.04 0.08 0.13 0.10 0.01 0.00 0.00 0.00 0.00 0.00 0.01 0.06 0.03 0.02 0.01 0.00 0.00 0.01 0.02 0.01 0.00
0.05 0.04 0.03 0.01 0.01 0.01 0.01 0.01 0.03 0.08 0.10 0.16 0.37 0.41 0.30 0.07 0.02 0.00 0.02 0.01 0.01 0.01 0.00 0.00 0.02 0.04 0.06 0.08 0.15 0.04 0.00 0.00 0.00 0.00 0.00 0.00 0.00 0.00 0.00 0.00 0.00 0.00 0.00 0.00 0.00 0.00 0.00
0.03 0.02 0.02 0.02 0.01 0.00 0.01 0.01 0.02 0.06 0.11 0.17 0.25 0.33 0.32 0.08 0.01 0.00 0.00 0.00 0.00 0.00 0.00 0.01 0.05 0.10 0.14 0.12 0.14 0.05 0.00 0.00 0.00 0.00 0.00 0.00 0.00 0.00 0.00 0.00 0.00 0.00 0.00 0.00 0.00 0.00 0.00
0.02 0.02 0.02 0.02 0.01 0.00 0.00 0.01 0.01 0.01 0.08 0.19 0.22 0.24 0.19 0.07 0.00 0.00 0.00 0.00 0.00 0.00 0.00 0.01 0.04 0.11 0.18 0.14 0.08 0.01 0.00 0.00 0.00 0.00 0.00 0.00 0.00 0.00 0.00 0.00 0.00 0.00 0.00 0.00 0.00 0.00 0.00

GFSGBSN_prec_precacc24_015.txt.gz
Total_Precipitation_Accumulation
0.00 0.01 0.04 0.07 0.06 0.06 0.04 0.04 0.06 0.06 0.06 0.08 0.10 0.10 0.09 0.07 0.09 0.11 0.09 0.06 0.01 0.01 0.00 0.00 0.01 0.00 0.03 0.07 0.02 0.00 0.00 0.00 0.03 0.20 0.02 0.00 0.00 0.00 0.00 0.00 0.00 0.00 0.00 0.00 0.00 0.00 0.00
0.00 0.00 0.00 0.01 0.03 0.05 0.06 0.06 0.06 0.07 0.07 0.09 0.11 0.10 0.10 0.10 0.10 0.10 0.09 0.06 0.05 0.01 0.02 0.00 0.01 0.01 0.00 0.02 0.00 0.00 0.00 0.00 0.00 0.11 0.06 0.01 0.00 0.00 0.00 0.00 0.00 0.00 0.00 0.00 0.00 0.00 0.00
0.00 0.00 0.00 0.00 0.00 0.03 0.07 0.07 0.08 0.08 0.09 0.09 0.12 0.13 0.11 0.11 0.11 0.10 0.09 0.07 0.09 0.02 0.00 0.00 0.01 0.00 0.00 0.00 0.00 0.00 0.00 0.00 0.00 0.07 0.10 0.02 0.00 0.01 0.01 0.00 0.00 0.00 0.00 0.00 0.00 0.00 0.00
0.00 0.01 0.01 0.00 0.00 0.01 0.05 0.06 0.05 0.06 0.08 0.09 0.11 0.15 0.14 0.14 0.14 0.11 0.10 0.08 0.12 0.08 0.06 0.04 0.01 0.00 0.00 0.00 0.00 0.00 0.00 0.00 0.00 0.01 0.05 0.05 0.01 0.01 0.01 0.01 0.00 0.00 0.00 0.00 0.00 0.00 0.00
0.01 0.01 0.01 0.01 0.01 0.02 0.02 0.03 0.04 0.06 0.07 0.11 0.13 0.12 0.16 0.19 0.19 0.18 0.23 0.23 0.24 0.11 0.05 0.10 0.01 0.00 0.00 0.00 0.00 0.00 0.00 0.00 0.00 0.00 0.00 0.01 0.01 0.00 0.00 0.01 0.01 0.00 0.00 0.00 0.00 0.00 0.00
0.01 0.01 0.02 0.02 0.03 0.04 0.03 0.03 0.03 0.05 0.07 0.09 0.11 0.13 0.15 0.20 0.22 0.24 0.38 0.52 0.52 0.27 0.08 0.03 0.00 0.00 0.00 0.00 0.00 0.00 0.00 0.00 0.00 0.00 0.00 0.00 0.00 0.00 0.00 0.01 0.00 0.00 0.00 0.00 0.00 0.00 0.00
0.02 0.02 0.03 0.03 0.05 0.04 0.04 0.03 0.02 0.06 0.08 0.07 0.11 0.14 0.19 0.23 0.27 0.40 0.62 0.95 0.71 0.39 0.12 0.00 0.00 0.00 0.00 0.00 0.00 0.00 0.00 0.00 0.00 0.00 0.00 0.00 0.01 0.01 0.00 0.00 0.00 0.00 0.00 0.00 0.00 0.00 0.00
0.02 0.03 0.03 0.05 0.05 0.06 0.05 0.03 0.04 0.06 0.10 0.10 0.12 0.20 0.23 0.21 0.28 0.63 0.74 0.85 0.29 0.08 0.03 0.00 0.00 0.00 0.00 0.00 0.00 0.00 0.00 0.00 0.00 0.00 0.00 0.00 0.00 0.00 0.00 0.00 0.00 0.00 0.00 0.00 0.00 0.00 0.00
0.03 0.03 0.04 0.06 0.05 0.07 0.04 0.05 0.07 0.13 0.20 0.15 0.17 0.21 0.27 0.26 0.45 0.78 0.53 0.48 0.21 0.09 0.02 0.00 0.00 0.00 0.00 0.00 0.00 0.00 0.00 0.00 0.00 0.00 0.00 0.00 0.00 0.00 0.00 0.00 0.00 0.00 0.00 0.00 0.00 0.00 0.00
0.03 0.03 0.05 0.05 0.06 0.06 0.05 0.08 0.13 0.18 0.33 0.33 0.25 0.21 0.28 0.50 0.96 0.60 0.55 0.26 0.27 0.22 0.09 0.01 0.00 0.00 0.00 0.00 0.00 0.00 0.00 0.00 0.00 0.00 0.00 0.00 0.00 0.00 0.00 0.00 0.00 0.00 0.00 0.00 0.00 0.00 0.00
0.03 0.04 0.05 0.06 0.07 0.08 0.11 0.14 0.19 0.23 0.23 0.32 0.30 0.25 0.31 0.75 0.91 0.66 0.63 0.61 0.43 0.35 0.34 0.03 0.00 0.00 0.01 0.00 0.00 0.00 0.00 0.00 0.00 0.00 0.00 0.00 0.00 0.00 0.00 0.00 0.00 0.00 0.00 0.00 0.01 0.02 0.03
0.04 0.06 0.07 0.07 0.10 0.14 0.16 0.19 0.21 0.12 0.09 0.19 0.41 0.49 0.62 0.74 0.68 0.55 0.60 0.89 0.74 0.35 0.20 0.01 0.01 0.03 0.03 0.01 0.01 0.00 0.01 0.01 0.01 0.01 0.01 0.00 0.00 0.00 0.00 0.00 0.00 0.00 0.02 0.01 0.02 0.05 0.09
0.05 0.08 0.08 0.09 0.14 0.16 0.18 0.18 0.09 0.11 0.13 0.25 0.70 0.97 1.05 0.87 0.69 0.54 0.95 1.14 0.87 0.18 0.01 0.01 0.01 0.03 0.01 0.01 0.02 0.01 0.02 0.04 0.05 0.08 0.09 0.06 0.01 0.00 0.00 0.00 0.00 0.01 0.07 0.17 0.17 0.16 0.05
0.06 0.10 0.10 0.11 0.12 0.13 0.16 0.10 0.12 0.13 0.25 0.48 0.83 0.86 0.84 0.71 0.60 1.08 1.04 0.74 0.47 0.04 0.00 0.00 0.01 0.01 0.01 0.00 0.02 0.01 0.03 0.04 0.03 0.10 0.14 0.06 0.02 0.00 0.00 0.00 0.00 0.00 0.03 0.10 0.08 0.03 0.01
0.07 0.10 0.12 0.11 0.11 0.12 0.10 0.08 0.10 0.20 0.43 0.72 0.66 0.96 1.08 0.88 0.76 1.28 0.93 0.51 0.16 0.00 0.00 0.00 0.01 0.02 0.02 0.01 0.01 0.02 0.03 0.01 0.00 0.01 0.05 0.04 0.01 0.00 0.00 0.00 0.03 0.12 0.17 0.05 0.15 0.11 0.22
0.08 0.11 0.12 0.11 0.10 0.08 0.06 0.07 0.18 0.50 0.93 0.81 0.67 1.31 0.97 0.80 0.90 1.07 0.75 0.27 0.03 0.00 0.00 0.00 0.00 0.00 0.00 0.00 0.01 0.01 0.01 0.00 0.00 0.00 0.00 0.00 0.02 0.00 0.00 0.01 0.01 0.04 0.05 0.16 0.43 0.23 0.12
0.09 0.12 0.11 0.10 0.08 0.05 0.05 0.12 0.27 0.42 0.64 0.62 0.74 1.17 1.00 0.72 1.04 1.03 0.64 0.19 0.01 0.00 0.00 0.00 0.00 0.00 0.00 0.00 0.00 0.00 0.00 0.00 0.00 0.00 0.00 0.01 0.04 0.01 0.02 0.01 0.00 0.02 0.13 0.12 0.16 0.11 0.08
0.11 0.10 0.09 0.09 0.07 0.03 0.06 0.19 0.20 0.40 0.68 0.73 1.00 0.96 0.99 0.89 1.16 0.82 0.30 0.04 0.00 0.00 0.00 0.00 0.00 0.00 0.00 0.00 0.00 0.00 0.00 0.00 0.00 0.00 0.00 0.00 0.08 0.06 0.01 0.00 0.00 0.00 0.00 0.03 0.18 0.06 0.11
0.11 0.09 0.07 0.09 0.06 0.04 0.05 0.11 0.16 0.37 0.68 1.16 0.88 0.92 1.08 0.52 0.41 0.27 0.13 0.01 0.00 0.01 0.01 0.00 0.00 0.00 0.00 0.00 0.00 0.00 0.00 0.00 0.00 0.00 0.00 0.01 0.13 0.13 0.09 0.11 0.09 0.12 0.02 0.08 0.15 0.26 0.18
0.08 0.09 0.07 0.08 0.07 0.05 0.02 0.03 0.12 0.35 0.57 0.93 0.81 1.19 1.61 0.88 0.17 0.02 0.04 0.02 0.01 0.01 0.00 0.01 0.02 0.02 0.01 0.00 0.00 0.00 0.00 0.00 0.00 0.00 0.01 0.11 0.17 0.11 0.10 0.29 0.41 0.32 0.07 0.08 0.28 0.32 0.05
0.07 0.07 0.06 0.09 0.06 0.03 0.01 0.02 0.08 0.34 0.58 0.60 0.51 0.31 0.43 0.53 0.15 0.02 0.01 0.01 0.00 0.01 0.01 0.03 0.04 0.04 0.02 0.01 0.00 0.00 0.00 0.00 0.00 0.02 0.13 0.33 0.24 0.11 0.12 0.22 0.58 0.38 0.14 0.10 0.30 0.12 0.10
0.06 0.06 0.07 0.09 0.04 0.02 0.00 0.01 0.08 0.44 0.48 0.44 0.61 0.16 0.01 0.01 0.02 0.00 0.00 0.01 0.00 0.01 0.03 0.04 0.01 0.01 0.03 0.03 0.00 0.00 0.00 0.00 0.01 0.03 0.13 0.31 0.38 0.33 0.34 0.25 0.35 0.27 0.07 0.11 0.11 0.03 0.04
0.06 0.05 0.07 0.08 0.03 0.01 0.01 0.01 0.06 0.38 0.52 0.54 0.69 0.22 0.01 0.01 0.01 0.00 0.00 0.00 0.00 0.02 0.02 0.00 0.01 0.02 0.02 0.01 0.01 0.01 0.01 0.01 0.01 0.06 0.26 0.41 0.47 0.63 0.48 0.18 0.19 0.26 0.07 0.05 0.09 0.06 0.02
0.06 0.05 0.09 0.07 0.03 0.01 0.01 0.01 0.05 0.22 0.41 0.59 0.70 0.47 0.13 0.05 0.01 0.00 0.00 0.00 0.00 0.00 0.00 0.00 0.00 0.02 0.01 0.01 0.01 0.01 0.00 0.01 0.01 0.01 0.05 0.19 0.41 0.71 0.82 0.44 0.43 0.25 0.10 0.13 0.15 0.12 0.06
0.05 0.07 0.07 0.05 0.02 0.01 0.01 0.01 0.04 0.11 0.19 0.39 0.52 0.52 0.17 0.05 0.01 0.00 0.01 0.01 0.02 0.02 0.00 0.00 0.00 0.00 0.02 0.03 0.05 0.06 0.01 0.01 0.00 0.00 0.00 0.02 0.16 0.38 0.40 0.29 0.15 0.03 0.07 0.11 0.09 0.08 0.03
0.05 0.05 0.06 0.02 0.01 0.01 0.01 0.01 0.03 0.05 0.06 0.26 0.42 0.57 0.27 0.06 0.02 0.00 0.02 0.01 0.04 0.06 0.02 0.00 0.00 0.01 0.05 0.10 0.16 0.11 0.01 0.00 0.00 0.00 0.00 0.00 0.02 0.13 0.08 0.17 0.07 0.02 0.01 0.02 0.02 0.01 0.00
0.05 0.04 0.04 0.02 0.01 0.01 0.01 0.01 0.03 0.08 0.10 0.17 0.43 0.50 0.37 0.09 0.02 0.00 0.02 0.01 0.01 0.01 0.01 0.00 0.02 0.04 0.08 0.11 0.18 0.06 0.01 0.00 0.00 0.00 0.00 0.01 0.02 0.03 0.03 0.06 0.01 0.00 0.00 0.00 0.00 0.00 0.00
0.03 0.02 0.02 0.02 0.01 0.01 0.01 0.01 0.02 0.06 0.11 0.17 0.27 0.36 0.42 0.13 0.02 0.00 0.00 0.00 0.00 0.00 0.00 0.01 0.05 0.10 0.15 0.14 0.16 0.06 0.02 0.00 0.00 0.00 0.00 0.00 0.00 0.00 0.00 0.00 0.00 0.00 0.00 0.00 0.00 0.00 0.00
0.03 0.02 0.02 0.02 0.01 0.01 0.01 0.01 0.01 0.01 0.08 0.19 0.23 0.25 0.24 0.13 0.01 0.00 0.00 0.00 0.00 0.00 0.01 0.01 0.05 0.11 0.19 0.16 0.12 0.06 0.02 0.00 0.00 0.00 0.00 0.00 0.00 0.00 0.00 0.00 0.00 0.00 0.00 0.00 0.00 0.00 0.00